Hourly Data Report for June 08, 2021

DRYDEN REGIONAL
ONTARIO
Current Station Operator: NAVCAN

49°49'39.000" N
92°44'39.000" W
412.70 m
6032125
71527
YHD

Download Data

Hourly Data (June 2021)
Hourly Data Report for June 8, 2021
TIME
LST
Temp Definition
°C
Dew Point Definition
°C
Rel Hum Definition
%
Precip. Amount Definition
mm

Wind Dir Definition
10's deg

Wind Spd Definition
km/h
Visibility Definition
km
Stn Press Definition
kPa
Hmdx Definition


Wind Chill Definition


Weather Definition


00:00 17.4 10.9 65 0.0 5 11 16.1 96.48     LegendNANA
01:00 16.6 11.4 71 0.0 6 9 16.1 96.55     LegendNANA
02:00 16.6 10.7 68 0.0 6 17 16.1 96.54     LegendNANA
03:00 16.6 10.7 68 0.0 4 15 16.1 96.59     LegendNANA
04:00 16.4 10.5 68 0.0 6 15 16.1 96.65     LegendNANA
05:00 16.3 10.4 68 0.0 6 11 16.1 96.74     LegendNANA
06:00 16.5 10.9 69 0.0 5 13 16.1 96.79     LegendNANA
07:00 18.4 11.6 64 0.0 6 9 16.1 96.81     LegendNANA
08:00 20.9 12.0 56 0.0 6 13 16.1 96.76     LegendNANA
09:00 22.4 11.6 50 0.0 6 13 16.1 96.72     LegendNANA
10:00 23.4 11.7 47 0.0 5 13 16.1 96.74 26   LegendNANA
11:00 24.6 11.6 44 0.0 LegendMM 8 16.1 96.83 27   LegendNANA
12:00 25.9 10.2 37 0.0 6 9 16.1 96.88 27   LegendNANA
13:00 26.3 9.8 35 0.0 5 9 16.1 96.90 27   LegendNANA
14:00 27.0 7.4 28 0.0 6 11 16.1 96.93 27   LegendNANA
15:00 27.6 8.3 29 0.0 4 9 16.1 96.94 28   LegendNANA
16:00 27.7 9.8 32 0.0 6 11 16.1 96.95 29   LegendNANA
17:00 27.4 9.0 31 0.0 6 11 16.1 96.95 28   LegendNANA
18:00 26.7 9.6 34 0.0 5 13 16.1 96.93 28   LegendNANA
19:00 24.6 10.3 40 0.0 4 11 16.1 96.94 26   LegendNANA
20:00 22.8 12.9 53 0.0 5 9 16.1 96.94 26   LegendNANA
21:00 21.4 12.1 55 0.0 4 9 16.1 96.96     LegendNANA
22:00 20.4 12.3 59 0.0 6 8 16.1 97.03     LegendNANA
23:00 19.0 13.3 69 0.0 5 8 16.1 97.09     LegendNANA

Notes on Data Quality.

Legend

  • E = Estimated
  • M = Missing
  • NA = Not Available*
  • [empty] = Indicates an unobserved value
Date modified: